Regional Weather Roundup
Issued by NWS

Home | Current Version | Previous Version | Graphics & Text | Print | Product List | Glossary On
Versions: 1 2 3 4 5 6 7 8 9 10 11 12 13 14 15 16 17 18 19 20 21 22 23 24 25 26 27 28
000
ASUS45 KPSR 281110
RWRAZ

ARIZONA HOURLY REGIONAL WEATHER ROUNDUP
NATIONAL WEATHER SERVICE PHOENIX AZ
400 AM MST SUN AUG 28 2016

NOTE: FAIR INDICATES FEW OR NO CLOUDS BELOW 12,000 FEET WITH NO
SIGNIFICANT WEATHER AND/OR OBSTRUCTIONS TO VISIBILITY.

AZZ001>003-036-281200-
NORTHWEST ARIZONA

CITY           SKY/WX    TMP DP  RH WIND       PRES   REMARKS
BULLHEAD CITY  CLEAR     77  57  50 CALM      29.93R
KINGMAN        CLEAR     59  55  87 SE6       30.10R
$$

AZZ004>008-015-016-018-281200-
NORTH CENTRAL ARIZONA

CITY           SKY/WX    TMP DP  RH WIND       PRES   REMARKS
GRAND CANYON   CLEAR     47  45  93 CALM      30.28S
PRESCOTT       MOCLDY    58  53  84 CALM      30.19R
FLAGSTAFF      CLOUDY    48  47  96 CALM      30.29S
PAYSON         PTCLDY    57  46  67 CALM      30.20S
PAGE           PTCLDY    63  53  70 SW3       30.16S
$$

AZZ009>014-017-281200-
NORTHEAST ARIZONA

CITY           SKY/WX    TMP DP  RH WIND       PRES   REMARKS
WINSLOW        PTCLDY    52  49  89 SW6       30.19S
SAINT JOHNS    CLOUDY    53  49  86 S3        30.23R
SHOW LOW       MOCLDY    48  45  87 CALM      30.27R
$$

AZZ023-281200-
GREATER PHOENIX AREA

CITY           SKY/WX    TMP DP  RH WIND       PRES   REMARKS
PHOENIX        CLEAR     81  52  36 W8        29.91R
BUCKEYE        CLEAR     73  39  29 N6        29.93R
LUKE AFB       CLEAR     76  54  46 NW5       29.91R
DEER VALLEY    CLEAR     75  52  44 N5        29.93S
SCOTTSDALE     CLEAR     77  51  40 NE6       29.95S
MESA-GATEWAY   CLEAR     72  52  49 CALM      29.94R
$$

AZZ027-028-281200-
SOUTHWEST MARICOPA COUNTY AND PINAL COUNTY

CITY           SKY/WX    TMP DP  RH WIND       PRES   REMARKS
CASA GRANDE    CLEAR     73  37  27 S5        29.96R
GILA BEND      FAIR      72  35  25 SE8       29.90R
$$

AZZ503-504-507>509-281200-
SOUTHEAST ARIZONA

CITY           SKY/WX    TMP DP  RH WIND       PRES   REMARKS
TUCSON         CLEAR     69  42  37 SE6       30.04R
DAVIS-MONTHAN  CLEAR     67  45  45 SE2       30.02S
NOGALES        CLEAR     58  41  53 CALM      30.11R
SIERRA VISTA   CLEAR     65  36  33 W10       30.15S
DOUGLAS        MOCLDY    58  46  64 CALM      30.11S
SAFFORD        MOCLDY    63  46  54 CALM      30.03R
$$

AZZ020-021-025-026-031-281200-
SOUTHWEST ARIZONA

CITY           SKY/WX    TMP DP  RH WIND       PRES   REMARKS
YUMA           CLEAR     77  45  32 CALM      29.86S
$$

CAZ031-033-041-043-047-048-061-281200-
SOUTHERN CALIFORNIA

CITY           SKY/WX    TMP DP  RH WIND       PRES   REMARKS
DOWNTOWN L.A.  CLEAR     63  59  87 CALM      29.98S
L.A. AIRPORT   CLEAR     65  59  81 CALM      29.98F
SAN DIEGO      CLOUDY    70  61  73 N5        29.99F
BURBANK        CLEAR     64  56  75 CALM      29.99S
ONTARIO        CLEAR     64  57  78 CALM      30.00S
RIVERSIDE      CLEAR     65  58  78 CALM      30.00S
PALM SPRINGS   CLEAR     80  57  45 CALM      29.90R
EL CENTRO NAS  CLEAR     76  57  51 SE7       29.86R
IMPERIAL       CLEAR     80  60  50 E7        29.84R
BLYTHE         CLEAR     77  49  37 N7        29.88R
NEEDLES        CLEAR     75  66  73 E9        29.93R
$$

NVZ020-UTZ003-281200-
SOUTHERN NEVADA-UTAH

CITY           SKY/WX    TMP DP  RH WIND       PRES   REMARKS
LAS VEGAS      CLEAR     77  50  38 N8        30.00S
SALT LAKE CITY CLEAR     69  38  32 S9        30.08R
$$

NMZ009-TXZ055-281200-
NEW MEXICO-WEST TEXAS

CITY           SKY/WX    TMP DP  RH WIND       PRES   REMARKS
ALBUQUERQUE    PTCLDY    59  50  72 NE6       30.23S
EL PASO        PTCLDY    68  62  81 SW3       30.11S
$$


........................KEY........................
SKY/WX - SKY CONDITION/WEATHER
TMP    - TEMPERATURE IN FAHRENHEIT
DP     - DEW POINT IN FAHRENHEIT
RH     - RELATIVE HUMIDITY IN PERCENT
WIND   - DIRECTION AND SPEED IN MILES PER HOUR (MPH)
VRB    - VARIABLE WIND DIRECTION
PRES   - MEAN SEA LEVEL PRESSURE IN INCHES OF MERCURY
         F - FALLING PRESSURE   R - RISING PRESSURE
         S - STEADY PRESSURE
VSB    - VISIBILITY IN MILES
HX     - HEAT INDEX IN FAHRENHEIT
WCI    - WIND CHILL INDEX IN FAHRENHEIT
TC     - TEMPERATURE IN CELSIUS WHICH IS ALSO KNOWN AS
         TEMPERATURE IN CENTIGRADE
AFB    - AIR FORCE BASE
         LUKE AFB IS LUKE AIR FORCE BASE
         DAVIS-MONTHAN IS DAVIS-MONTHAN AIR FORCE BASE
NAS    - NAVAL AIR STATION
         EL CENTRO NAS IS EL CENTRO NAVAL AIR STATION
N/A    - NOT AVAILABLE





USA.gov is the U.S. government's official web portal to all federal, state and local government web resources and services.